Wind_Speed
17 17 17 17 16 16 16 15 15 16 16 16 16 16 15 15 15 15 14 14 13 13 13 13 13 12 12 12 11 11 11 12 11 12 12 11 10 10 10 10 10 10 10 10
18 17 17 18 17 17 17 16 17 17 18 17 17 17 16 16 15 14 14 15 15 15 14 13 13 13 12 12 12 13 13 13 13 13 12 12 11 11 11 12 12 11 11 12
18 18 19 18 17 17 18 18 18 18 18 18 18 18 17 17 17 16 16 16 17 16 15 14 14 14 14 13 14 14 14 14 14 14 13 13 13 13 13 13 13 13 13 14
19 19 20 18 18 18 19 19 19 19 19 19 19 19 18 18 18 17 17 18 17 17 16 16 15 15 15 15 15 15 15 16 16 15 14 14 14 14 14 15 15 15 15 15
22 22 22 20 20 19 19 20 19 20 20 20 19 19 19 18 18 17 18 18 18 17 17 17 16 16 16 16 16 16 16 16 16 16 16 16 16 16 15 16 16 16 16 16
24 24 24 22 20 20 20 20 19 20 20 20 20 19 19 19 18 17 18 18 18 18 18 18 17 17 17 18 18 17 17 17 17 17 17 17 17 17 17 17 17 17 17 17
25 25 26 23 22 22 22 22 21 21 21 20 20 20 20 20 19 18 19 19 19 19 19 19 18 18 19 19 19 18 19 19 18 18 19 19 19 19 19 19 19 19 19 19
26 27 26 24 24 24 24 24 23 22 22 22 21 21 21 21 20 20 20 20 20 20 20 20 20 20 20 21 21 20 20 20 19 19 20 20 20 20 21 21 21 21 20 20
27 27 26 26 25 25 26 26 25 24 24 23 23 22 22 21 22 22 22 22 21 21 21 20 21 21 22 22 22 22 21 21 21 21 21 21 21 22 22 22 23 23 22 22
29 29 28 29 28 27 27 27 27 26 25 24 24 23 23 23 23 23 23 23 23 22 21 21 22 22 22 22 23 22 22 22 22 22 23 23 23 23 24 23 23 24 23 23
30 30 30 30 30 29 28 28 28 27 26 25 25 24 24 24 24 24 25 24 24 23 22 22 23 23 24 23 23 23 22 22 23 23 24 24 24 24 24 25 24 24 24 24
31 31 32 31 31 31 30 30 29 28 27 27 27 26 25 25 25 25 25 25 25 24 24 24 24 24 24 24 24 24 23 23 24 24 25 25 24 25 25 26 26 26 26 27
33 33 33 32 31 31 31 30 30 29 29 28 28 27 26 26 26 25 25 26 26 26 25 25 25 25 25 26 25 25 25 24 24 24 25 26 26 26 26 26 26 26 26 27
33 33 33 33 32 31 31 30 30 30 29 29 29 28 28 27 26 26 26 26 26 26 26 26 26 26 26 26 26 26 26 25 25 25 25 26 26 26 26 26 27 27 27 27
34 33 33 32 32 32 31 31 30 30 30 29 29 29 29 28 28 27 27 27 26 26 27 26 26 26 26 26 27 27 27 27 26 26 26 26 26 26 26 27 28 28 28 28
32 32 32 32 32 32 31 31 31 31 31 31 30 30 30 30 29 29 29 28 27 27 27 27 27 27 27 27 27 28 28 28 28 28 28 27 27 27 27 28 28 28 29 29
32 31 31 31 32 32 32 32 32 32 31 31 31 31 31 31 31 30 30 29 29 29 28 28 28 28 29 29 29 29 29 29 29 29 29 29 29 29 28 29 29 29 30 30
32 31 31 31 32 32 32 32 32 31 31 31 31 31 31 31 31 31 30 30 30 30 30 30 30 30 31 31 30 30 30 30 30 30 30 30 30 30 30 30 30 31 31 31
32 31 31 31 31 31 31 31 32 32 32 32 32 32 32 32 32 32 32 32 32 32 32 32 32 32 32 32 32 32 31 31 31 32 32 32 32 32 32 31 32 32 32 32
33 33 32 32 32 32 32 32 32 33 33 33 33 33 33 34 34 34 34 34 34 34 34 34 34 34 33 33 33 33 33 33 32 32 33 33 32 33 33 33 33 33 33 33
34 33 33 33 33 33 33 33 34 34 34 35 35 35 35 35 35 36 36 36 35 36 36 36 36 35 35 34 34 34 34 34 34 34 34 34 34 34 34 34 34 34 34 35
34 34 34 35 35 34 35 36 36 36 36 37 37 37 37 37 37 37 37 37 37 36 37 37 36 36 36 35 35 35 35 35 35 35 35 34 34 34 34 34 34 35 35 36
35 35 36 36 37 37 38 38 38 38 38 38 38 38 38 38 38 38 38 38 38 37 37 37 37 37 37 36 36 36 37 36 36 35 34 34 34 34 33 34 34 35 35 35
36 37 37 37 38 39 40 39 40 40 40 39 39 39 38 38 38 38 39 39 38 38 38 38 38 38 37 36 36 36 36 36 35 34 34 33 33 34 35 35 35 35 36 36
37 37 38 38 39 39 40 40 40 40 39 39 39 40 40 39 39 39 39 39 39 39 38 38 38 37 37 36 35 35 35 35 35 35 35 35 35 35 36 36 35 35 36 36
38 39 39 40 40 40 40 40 41 41 40 40 40 40 40 40 39 39 39 39 38 38 38 38 39 38 38 37 36 36 36 36 36 36 36 36 36 36 36 36 36 36 36 37
39 39 39 39 40 40 40 41 41 41 40 40 40 39 39 39 39 39 39 39 38 39 39 39 38 38 37 37 37 38 38 37 37 36 36 37 37 37 37 37 37 37 37 38
Wind_Direction
259 262 264 268 269 268 271 274 278 280 281 285 288 289 290 290 292 294 295 296 297 299 302 303 300 299 299 294 287 280 277 277 279 281 275 271 270 272 278 282 285 286 281 283
260 261 262 264 267 269 271 274 277 280 283 286 287 287 286 286 289 291 294 296 297 298 300 300 299 298 296 294 288 282 277 275 275 276 273 271 270 272 277 280 282 285 283 284
261 261 263 265 268 271 273 273 276 277 280 283 284 286 286 283 284 286 289 293 293 295 296 297 297 296 293 291 289 285 279 275 276 276 274 272 272 273 276 277 280 283 283 282
261 263 264 270 273 274 275 275 276 276 278 280 281 283 286 286 283 284 286 289 293 293 292 293 294 292 289 289 289 287 283 278 275 273 272 272 272 272 275 277 279 282 283 283
260 263 267 269 273 275 276 274 275 275 276 277 279 280 282 284 285 284 284 288 290 291 292 291 291 290 288 288 287 286 284 280 274 271 270 270 271 271 274 276 278 282 283 283
261 264 268 271 272 275 276 275 276 278 279 278 278 279 281 284 287 286 284 287 289 289 290 290 288 288 288 288 286 283 282 279 274 271 268 269 270 270 272 275 278 281 283 282
262 265 268 271 272 274 275 278 278 278 277 277 275 278 281 283 284 285 284 286 288 289 290 289 289 288 288 286 286 284 281 279 274 271 269 268 269 269 271 274 276 278 280 281
262 265 268 270 271 272 274 276 276 276 274 274 273 275 279 281 282 283 284 285 287 288 289 289 288 287 288 286 285 284 282 280 275 272 270 270 270 269 271 272 274 274 277 279
264 266 269 269 270 271 271 272 272 274 273 274 274 275 277 278 280 282 283 284 285 286 287 288 288 286 287 286 284 283 281 279 276 273 272 273 272 271 271 272 274 273 275 277
264 266 267 267 267 267 268 269 271 272 273 274 275 276 277 278 279 281 282 283 284 284 285 287 287 286 286 286 285 282 280 278 275 273 273 273 273 272 270 270 272 272 274 275
264 265 266 266 266 267 267 268 269 271 272 271 273 275 277 277 279 280 281 282 282 283 283 285 286 286 285 286 285 282 279 278 276 275 275 273 273 272 270 270 271 272 272 274
263 264 265 265 266 267 267 267 268 269 271 270 271 274 275 277 279 279 280 280 281 281 282 283 285 285 285 285 284 281 279 278 277 276 274 273 271 271 270 269 270 271 272 273
262 264 265 264 266 268 268 268 269 269 269 269 270 272 274 275 277 278 280 280 281 282 283 283 284 285 285 285 283 281 280 279 278 276 274 273 272 271 269 268 270 271 272 274
262 264 265 264 265 265 266 267 268 268 268 268 269 271 272 274 275 277 280 281 281 281 282 282 283 284 284 283 282 282 280 279 279 277 275 275 273 271 268 268 270 272 273 274
262 264 264 264 264 264 264 266 267 267 267 268 269 270 271 272 273 275 278 280 280 281 282 281 282 283 283 282 282 282 281 281 280 279 276 275 275 272 270 270 271 271 273 274
261 262 264 264 263 264 265 265 265 266 267 267 268 269 270 270 272 274 276 278 279 280 281 281 281 282 283 282 282 282 281 281 281 280 277 275 275 273 271 271 272 272 273 274
260 262 264 265 265 266 265 265 265 266 266 266 267 269 269 269 271 273 274 276 277 279 279 280 280 281 282 282 282 282 281 281 281 281 279 276 275 273 271 272 272 274 274 274
259 261 264 265 265 265 266 266 267 267 267 268 268 268 269 270 271 272 272 274 276 277 278 279 279 280 280 280 281 282 280 279 279 280 279 277 275 273 273 274 276 276 275 275
261 262 263 264 265 265 265 266 267 268 269 269 269 268 268 269 270 270 271 273 274 275 276 278 279 280 280 279 280 280 279 279 279 279 279 277 274 273 273 273 276 277 276 276
260 261 263 263 264 265 266 266 267 268 269 270 270 269 269 269 269 270 272 273 274 275 276 277 278 279 278 278 279 279 278 278 278 279 280 277 275 274 274 274 275 275 276 276
260 261 262 262 263 264 265 266 267 267 268 269 269 270 270 270 271 271 272 274 275 275 276 277 278 278 278 278 277 277 276 277 278 279 279 278 276 275 273 273 273 273 275 275
261 263 263 263 263 264 264 266 267 268 268 268 269 270 270 271 271 272 272 273 275 276 276 277 278 277 278 278 277 276 276 276 277 279 279 278 276 275 274 274 274 275 275 275
262 263 265 265 265 265 267 267 268 268 268 269 269 270 271 271 272 273 273 273 275 275 276 277 277 277 277 276 276 276 276 276 275 276 277 276 276 275 275 276 276 275 275 276
263 264 265 265 265 266 266 267 268 268 268 269 269 269 270 271 271 272 273 273 274 275 276 276 277 277 277 276 276 276 276 276 275 276 276 276 276 275 276 278 277 276 276 276
265 266 267 267 268 268 268 268 268 268 268 268 268 268 269 270 271 271 272 273 274 274 274 275 276 276 276 276 276 276 276 276 276 276 276 275 275 276 276 277 277 277 278 278
266 266 267 268 269 269 268 268 268 268 268 268 268 268 268 269 270 270 271 272 273 274 274 275 275 275 275 274 274 274 276 277 276 276 276 276 276 277 277 278 278 278 278 278
268 269 269 269 268 269 269 268 268 268 268 268 268 268 268 269 269 270 270 271 272 273 273 274 274 274 274 273 273 274 275 275 276 277 277 277 277 277 278 279 279 279 279 279
Height
5848 5848 5848 5848 5849 5850 5850 5849 5849 5850 5849 5848 5847 5846 5846 5845 5844 5843 5842 5841 5840 5840 5839 5838 5836 5836 5835 5834 5834 5834 5834 5835 5835 5835 5835 5835 5835 5836 5836 5836 5837 5837 5837 5837
5843 5843 5843 5844 5845 5845 5846 5846 5845 5845 5845 5845 5843 5843 5842 5841 5841 5840 5839 5838 5837 5836 5835 5834 5833 5833 5832 5831 5831 5831 5831 5831 5831 5831 5831 5832 5832 5833 5833 5834 5834 5834 5834 5834
5838 5839 5839 5840 5841 5841 5841 5841 5841 5841 5841 5840 5839 5838 5838 5837 5836 5836 5835 5835 5834 5833 5832 5831 5830 5829 5829 5828 5827 5827 5827 5827 5827 5827 5827 5828 5829 5829 5830 5830 5830 5830 5830 5830
5833 5835 5834 5838 5837 5836 5836 5836 5836 5836 5835 5835 5834 5834 5833 5833 5832 5832 5832 5831 5830 5829 5828 5827 5826 5826 5825 5824 5824 5823 5823 5823 5823 5823 5824 5824 5825 5825 5826 5826 5826 5826 5826 5826
5828 5828 5829 5832 5831 5831 5831 5831 5831 5830 5830 5829 5829 5829 5828 5828 5828 5828 5827 5827 5826 5825 5824 5823 5822 5822 5821 5820 5820 5819 5819 5819 5819 5819 5819 5820 5820 5821 5821 5822 5822 5822 5822 5821
5822 5822 5823 5827 5826 5825 5826 5826 5826 5824 5824 5824 5823 5824 5824 5823 5823 5823 5822 5822 5821 5820 5819 5819 5818 5817 5817 5816 5815 5815 5814 5814 5813 5814 5815 5815 5815 5816 5816 5817 5817 5817 5817 5817
5816 5816 5817 5820 5820 5820 5821 5821 5820 5819 5818 5818 5818 5818 5819 5818 5817 5817 5817 5817 5816 5815 5815 5814 5813 5812 5811 5811 5810 5809 5809 5808 5808 5808 5809 5809 5810 5810 5811 5811 5812 5812 5812 5812
5810 5810 5813 5814 5814 5814 5814 5813 5813 5813 5812 5812 5812 5812 5813 5812 5812 5812 5812 5811 5811 5810 5809 5808 5807 5807 5806 5805 5804 5803 5803 5802 5802 5802 5803 5803 5804 5804 5805 5805 5806 5806 5806 5806
5803 5805 5806 5806 5806 5807 5806 5806 5806 5806 5806 5806 5806 5806 5807 5807 5806 5806 5806 5805 5805 5804 5803 5803 5802 5801 5800 5799 5798 5797 5796 5796 5796 5796 5797 5797 5798 5798 5799 5799 5799 5799 5799 5799
5796 5797 5798 5798 5798 5798 5798 5799 5799 5799 5800 5800 5799 5800 5800 5800 5800 5800 5799 5799 5798 5798 5797 5796 5795 5794 5793 5792 5791 5790 5790 5789 5790 5790 5790 5790 5791 5791 5792 5792 5792 5793 5793 5793
5788 5789 5789 5790 5790 5790 5791 5791 5792 5792 5793 5793 5793 5793 5793 5794 5793 5793 5792 5792 5792 5791 5790 5790 5789 5787 5786 5785 5784 5783 5782 5782 5782 5783 5783 5783 5784 5784 5784 5785 5785 5786 5786 5786
5780 5781 5780 5781 5782 5782 5783 5783 5784 5784 5785 5786 5786 5786 5786 5786 5786 5786 5785 5785 5784 5784 5783 5782 5781 5780 5779 5778 5777 5776 5776 5775 5775 5775 5775 5776 5776 5776 5776 5777 5777 5777 5777 5778
5770 5771 5771 5772 5773 5773 5773 5775 5775 5776 5777 5778 5778 5778 5778 5779 5778 5778 5778 5777 5777 5776 5775 5774 5773 5772 5771 5770 5769 5769 5768 5768 5768 5767 5767 5767 5768 5768 5768 5769 5769 5769 5769 5769
5761 5761 5762 5763 5764 5764 5765 5765 5766 5767 5768 5769 5770 5770 5770 5770 5770 5770 5770 5769 5769 5768 5767 5766 5765 5764 5763 5762 5761 5761 5760 5760 5759 5759 5759 5759 5759 5760 5760 5760 5761 5761 5761 5761
5752 5752 5753 5753 5754 5755 5756 5756 5757 5758 5759 5760 5761 5761 5762 5762 5762 5762 5762 5761 5760 5760 5759 5758 5757 5756 5755 5754 5753 5752 5752 5751 5751 5751 5751 5751 5751 5751 5751 5752 5752 5752 5752 5752
5742 5743 5743 5744 5745 5746 5747 5747 5748 5749 5750 5751 5752 5752 5753 5753 5754 5754 5753 5753 5752 5751 5750 5749 5748 5747 5746 5745 5744 5744 5743 5743 5742 5742 5742 5742 5742 5742 5743 5743 5743 5743 5743 5743
5733 5734 5735 5736 5736 5737 5738 5739 5739 5740 5741 5742 5743 5743 5743 5744 5744 5744 5744 5744 5743 5742 5742 5741 5740 5739 5738 5737 5736 5735 5734 5734 5733 5733 5733 5733 5733 5733 5733 5734 5734 5734 5734 5733
5723 5725 5726 5727 5727 5728 5729 5730 5731 5731 5732 5733 5733 5734 5734 5735 5735 5735 5735 5734 5734 5733 5733 5732 5731 5730 5729 5728 5727 5726 5725 5724 5724 5724 5723 5723 5723 5724 5724 5724 5724 5724 5724 5723
5714 5716 5717 5718 5718 5719 5720 5721 5722 5722 5723 5723 5724 5724 5725 5725 5725 5725 5725 5725 5724 5724 5723 5722 5721 5720 5719 5718 5717 5716 5715 5714 5714 5713 5713 5713 5713 5713 5713 5714 5714 5714 5713 5713
5704 5706 5707 5708 5709 5710 5711 5712 5712 5713 5714 5714 5714 5715 5715 5715 5715 5715 5715 5714 5714 5714 5713 5712 5710 5710 5709 5708 5707 5706 5705 5704 5704 5703 5703 5702 5702 5702 5703 5703 5703 5703 5702 5702
5695 5696 5697 5698 5699 5700 5701 5702 5702 5703 5704 5704 5704 5704 5704 5704 5704 5704 5704 5704 5704 5703 5702 5701 5700 5699 5698 5697 5696 5695 5694 5694 5694 5693 5692 5692 5691 5691 5692 5692 5692 5691 5691 5691
5685 5686 5687 5688 5689 5690 5691 5691 5692 5692 5693 5693 5693 5693 5693 5694 5694 5693 5693 5693 5693 5691 5690 5690 5689 5687 5686 5685 5685 5684 5684 5683 5683 5682 5682 5681 5681 5680 5680 5680 5680 5680 5680 5679
5674 5675 5676 5677 5678 5679 5680 5680 5680 5680 5681 5681 5681 5682 5682 5682 5682 5682 5682 5682 5681 5680 5679 5678 5677 5676 5675 5674 5673 5673 5672 5672 5672 5672 5671 5671 5670 5670 5670 5670 5669 5669 5669 5668
5664 5664 5665 5666 5667 5667 5668 5668 5668 5668 5668 5669 5669 5669 5669 5670 5670 5670 5670 5669 5669 5668 5667 5667 5666 5665 5664 5663 5663 5662 5662 5661 5661 5661 5660 5660 5660 5660 5659 5659 5658 5658 5657 5657
5653 5653 5654 5654 5655 5655 5656 5656 5656 5656 5656 5656 5657 5657 5657 5657 5657 5658 5657 5657 5656 5656 5655 5655 5654 5653 5653 5652 5652 5652 5651 5651 5651 5650 5650 5650 5649 5649 5648 5648 5647 5646 5646 5645
5642 5642 5642 5642 5643 5643 5643 5643 5643 5643 5643 5644 5644 5644 5644 5644 5645 5645 5644 5644 5644 5643 5643 5643 5643 5642 5642 5642 5641 5641 5641 5640 5640 5640 5639 5639 5638 5637 5637 5636 5635 5635 5634 5633
5630 5630 5630 5630 5630 5630 5630 5630 5630 5630 5630 5630 5631 5631 5631 5632 5632 5632 5632 5632 5632 5631 5631 5631 5631 5630 5630 5630 5630 5630 5630 5629 5629 5628 5628 5627 5626 5626 5625 5624 5623 5622 5622 5620